Tracking 28792 objects as of 25-Apr-2024
HD Live streaming from Space Station
objects crossing your sky now

TJS-11

Track TJS-11 now!


NORAD ID: 59020
Int'l Code: 2024-037A
Perigee: 35,776.8 km
Apogee: 35,812.1 km
Inclination: 5.4 °
Period: 1,436.1 minutes
Semi major axis: 42165 km
RCS: Unknown
Launch date: February 23, 2024
Source: People's Republic of China (PRC)
Launch site: Wenchang Satellite Launch Center (WSC)
Your satellite tracking list
Your tracking list is empty




NASA's NSSDC Master Catalog

Two Line Element Set (TLE):
1 59020U 24037A   24115.95508101 -.00000360  00000-0  00000-0 0  9994
2 59020   5.4241 321.2044 0004185 143.7116 212.6347  1.00269326   724
Source of the keplerian elements: AFSPC